Wautoma, WI

5:45 AM CST on January 20, 2018 (GMT -0600)
Wautoma

Weather History for KY50 - August, 2014

Change the Weather History Date:

Thursday, August 21, 2014

  Actual Average (KPCZ) Record (KPCZ)
Temperature  
Mean Temperature 70 °F -  
Max Temperature 79 °F 78 °F 105 °F (1955)
Min Temperature 61 °F 56 °F 45 °F (1969)
Cooling Degree Days 5    
Growing Degree Days 20 (Base 50)    
Moisture  
Dew Point 67 °F    
Average Humidity 93    
Maximum Humidity 100    
Minimum Humidity 72    
Precipitation  
Precipitation 0.00 in - - ()
Sea Level Pressure  
Sea Level Pressure 29.93 in    
Wind  
Wind Speed 2 mph (SE)    
Max Wind Speed 10 mph    
Max Gust Speed -    
Visibility 6 miles    
Events Fog , Rain    
Averages and records for this station are not official NWS values.
T = Trace of Precipitation, MM = Missing Value Source: NWS Daily Summary

Daily Weather History Graph

Daily Weather History Graph

Search for Another Location

Airport or City:

Trip Planner

Search our weather history database for the weather conditions in past years. The results will help you decide how hot, cold, wet, or windy it might be!

Date:

Astronomy

Aug. 21, 2014 Rise Set
Actual Time 6:07 AM CDT 7:51 PM CDT
Civil Twilight 5:37 AM CDT 8:22 PM CDT
Nautical Twilight 4:59 AM CDT 8:59 PM CDT
Astronomical Twilight 4:19 AM CDT 9:39 PM CDT
Moon 2:34 AM CDT (8/21) 5:23 PM CDT (8/21)
Length of Visible Light 14h 45m
Length of Day
13h 44m
Waning Crescent, 13% of the Moon is Illuminated
Aug 21
Waning Crescent
Aug 25
New
Sep 2
First Quarter
Sep 8
Full
Sep 15
Last Quarter

Hourly Weather History & Observations

Time (CDT) Temp. Dew Point Humidity Pressure Visibility Wind Dir Wind Speed Gust Speed Precip Events Conditions
12:56 AM 64.4 °F 62.6 °F 94% 29.96 in 10.0 mi Calm Calm - N/A   Clear
1:56 AM 63.9 °F 63.0 °F 97% 29.94 in 7.0 mi Calm Calm - N/A   Partly Cloudy
2:56 AM 63.9 °F 63.9 °F 100% 29.92 in 7.0 mi Calm Calm - N/A   Clear
3:56 AM 61.9 °F 61.9 °F 100% 29.91 in 6.0 mi Calm Calm - N/A   Clear
4:56 AM 63.0 °F 61.9 °F 96% 29.91 in 7.0 mi Calm Calm - N/A   Mostly Cloudy
5:45 AM 62.6 °F 62.6 °F 100% 29.93 in 6.0 mi East 3.5 mph - N/A   Overcast
5:56 AM 63.9 °F 63.0 °F 97% 29.91 in 7.0 mi ENE 4.6 mph - N/A   Overcast
6:56 AM 64.9 °F 63.0 °F 93% 29.92 in 8.0 mi Calm Calm - N/A   Overcast
7:21 AM 66.2 °F 64.4 °F 94% 29.94 in 8.0 mi Calm Calm - N/A   Overcast
7:56 AM 65.8 °F 63.9 °F 93% 29.93 in 5.0 mi Calm Calm - N/A   Overcast
8:29 AM 66.2 °F 64.4 °F 94% 29.94 in 6.0 mi Calm Calm - N/A   Overcast
8:56 AM 65.8 °F 64.9 °F 97% 29.93 in 3.0 mi Calm Calm - 0.00 in Rain Light Rain
9:41 AM 66.2 °F 64.4 °F 94% 29.94 in 2.0 mi Calm Calm - 0.00 in Rain Light Rain
9:56 AM 66.2 °F 64.4 °F 94% 29.95 in 2.0 mi SE 3.5 mph - N/A Rain Light Rain
10:03 AM 66.2 °F 64.4 °F 94% 29.93 in 1.8 mi East 4.6 mph - 0.00 in Rain Light Rain
10:17 AM 66.2 °F 66.2 °F 100% 29.93 in 1.5 mi Calm Calm - 0.00 in Rain Light Rain
10:22 AM 66.2 °F 66.2 °F 100% 29.93 in 2.0 mi Calm Calm - 0.00 in Rain Light Rain
10:30 AM 66.2 °F 66.2 °F 100% 29.93 in 2.0 mi Calm Calm - 0.00 in Rain Light Rain
10:48 AM 66.2 °F 66.2 °F 100% 29.99 in 2.5 mi WNW 8.1 mph - 0.00 in Rain Light Rain
10:56 AM 66.9 °F 65.8 °F 96% 29.98 in 0.8 mi West 4.6 mph - 0.00 in Rain Heavy Rain
11:07 AM 66.2 °F 66.2 °F 100% 29.99 in 0.5 mi Calm Calm - 0.00 in Fog , Rain Heavy Rain
11:25 AM 66.2 °F 66.2 °F 100% 29.98 in 0.5 mi Calm Calm - 0.00 in Fog , Rain Heavy Rain
11:33 AM 66.2 °F 66.2 °F 100% 29.99 in 0.8 mi Calm Calm - 0.00 in Rain Heavy Rain
11:35 AM 66.2 °F 66.2 °F 100% 29.99 in 1.0 mi Calm Calm - 0.00 in Rain Light Rain
11:37 AM 66.2 °F 66.2 °F 100% 29.98 in 1.5 mi Calm Calm - 0.00 in Rain Light Rain
12:29 PM 69.8 °F 68.0 °F 94% 29.92 in 10.0 mi Calm Calm - 0.00 in Rain Light Rain
12:56 PM 70.0 °F 68.9 °F 96% 29.88 in 10.0 mi East 4.6 mph - 0.00 in   Mostly Cloudy
1:41 PM 73.4 °F 69.8 °F 88% 29.92 in 10.0 mi SSE 6.9 mph - N/A   Overcast
1:56 PM 72.0 °F 68.9 °F 90% 29.91 in 10.0 mi South 10.4 mph - N/A   Overcast
2:08 PM 73.4 °F 69.8 °F 88% 29.93 in 10.0 mi South 8.1 mph - N/A   Overcast
2:56 PM 75.9 °F 70.0 °F 82% 29.88 in 10.0 mi SSE 8.1 mph - N/A   Mostly Cloudy
3:03 PM 77.0 °F 69.8 °F 78% 29.90 in 10.0 mi SE 8.1 mph - N/A   Mostly Cloudy
3:43 PM 78.8 °F 69.8 °F 74% 29.90 in 10.0 mi SE 8.1 mph - N/A   Mostly Cloudy
3:56 PM 78.8 °F 69.8 °F 74% 29.90 in 10.0 mi Variable 4.6 mph - N/A   Mostly Cloudy
4:25 PM 78.8 °F 69.8 °F 74% 29.91 in 10.0 mi Calm Calm - N/A   Mostly Cloudy
4:56 PM 79.9 °F 70.0 °F 72% 29.89 in 10.0 mi SSE 5.8 mph - N/A   Mostly Cloudy
5:56 PM 77.0 °F 70.0 °F 79% 29.90 in 10.0 mi SE 4.6 mph - N/A   Overcast
6:56 PM 77.0 °F 71.6 °F 83% 29.91 in 10.0 mi SSE 4.6 mph - N/A   Mostly Cloudy
7:23 PM 75.2 °F 71.6 °F 89% 29.91 in 10.0 mi East 3.5 mph - N/A   Mostly Cloudy
7:56 PM 74.8 °F 70.9 °F 87% 29.91 in 10.0 mi Calm Calm - N/A   Overcast
8:56 PM 72.9 °F 70.9 °F 93% 29.91 in 10.0 mi NE 3.5 mph - N/A   Overcast
9:56 PM 71.6 °F 69.8 °F 94% 29.93 in 9.0 mi Calm Calm - N/A   Mostly Cloudy
10:14 PM 71.6 °F 69.8 °F 94% 29.93 in 9.0 mi Calm Calm - N/A   Mostly Cloudy
11:05 PM 69.8 °F 69.8 °F 100% 29.93 in 5.0 mi Calm Calm - N/A   Mostly Cloudy
11:22 PM 69.8 °F 69.8 °F 100% 29.93 in 4.0 mi Calm Calm - N/A   Overcast
11:47 PM 69.8 °F 69.8 °F 100% 29.94 in 5.0 mi Calm Calm - N/A   Overcast
11:56 PM 70.0 °F 68.9 °F 96% 29.91 in 4.0 mi Calm Calm - N/A   Overcast